This is the latest recevied weather packets stored in our database for station/object KI5MKI. If no packets are shown the sender has not sent any weather packets the latest 10 day(s).
| Time | Temp. | Humidity | Pressure | Rain* | Wind** | Luminosity | Snow |
|---|---|---|---|---|---|---|---|
| 1777778343 | 17.22° C | 59% | 1020.5 hPa | 0 mm | - | 0 W/m² | - |
| 1777778040 | 17.22° C | 57% | 1020.3 hPa | 0 mm | - | 0 W/m² | - |
| 1777777736 | 16.67° C | 59% | 1020.3 hPa | 0 mm | - | 0 W/m² | - |
| 1777777433 | 16.11° C | 64% | 1020.2 hPa | 0 mm | - | 0 W/m² | - |
| 1777777129 | 16.67° C | 61% | 1020.3 hPa | 0 mm | - | 0 W/m² | - |
| 1777776827 | 16.67° C | 60% | 1020.1 hPa | 0 mm | - | 0 W/m² | - |
| 1777776524 | 16.67° C | 62% | 1020.2 hPa | 0 mm | - | 0 W/m² | - |
| 1777776220 | 16.67° C | 60% | 1020.2 hPa | 0 mm | - | 0 W/m² | - |
| 1777775917 | 16.67° C | 63% | 1020.1 hPa | 0 mm | - | 0 W/m² | - |
| 1777775616 | 16.67° C | 62% | 1020.2 hPa | 0 mm | - | 0 W/m² | - |
| 1777775312 | 16.67° C | 62% | 1020.1 hPa | 0 mm | - | 0 W/m² | - |
| 1777775012 | 16.67° C | 61% | 1019.9 hPa | 0 mm | - | 0 W/m² | - |
| 1777774708 | 16.67° C | 61% | 1020 hPa | 0 mm | - | 0 W/m² | - |
| 1777774405 | 16.67° C | 60% | 1019.9 hPa | 0 mm | - | 0 W/m² | - |
| 1777774102 | 17.22° C | 61% | 1019.7 hPa | 0 mm | - | 0 W/m² | - |
| 1777773800 | 17.22° C | 60% | 1019.8 hPa | 0 mm | - | 0 W/m² | - |
| 1777773496 | 17.22° C | 60% | 1019.8 hPa | 0 mm | - | 0 W/m² | - |
| 1777773193 | 17.22° C | 61% | 1019.8 hPa | 0 mm | - | 0 W/m² | - |
| 1777772889 | 17.22° C | 58% | 1019.7 hPa | 0 mm | - | 0 W/m² | - |
| 1777772587 | 17.78° C | 60% | 1019.4 hPa | 0 mm | - | 0 W/m² | - |
| 1777772284 | 17.78° C | 59% | 1019.6 hPa | 0 mm | - | 0 W/m² | - |
| 1777771981 | 18.33° C | 57% | 1019.6 hPa | 0 mm | - | 0 W/m² | - |
| 1777771678 | 18.33° C | 56% | 1019.5 hPa | 0 mm | - | 0 W/m² | - |
| 1777771376 | 18.33° C | 55% | 1019.3 hPa | 0 mm | - | 0 W/m² | - |
| 1777771073 | 18.89° C | 53% | 1019.6 hPa | 0 mm | - | 1 W/m² | - |
* Rain latest hour (hover to see other rain measurements)
** Current wind speed in m/s (hover to see current wind gust speed)